ES'HAIL 1

Last updated on Jan. 21, 2021, 6:16 a.m. UTC

1 39233U 13044A   21020.91681348  .00000152  00000-0  00000-0 0  9995
2 39233   0.0486 357.1070 0002205 300.1893 178.7353  1.00269664 26855
UTC
Height (km)
Latitude
Longitude
Inclination
Orbital Period
UTC large
Height (km)
Speed (km/s)
/
Latitude / Longitude
Inclination (degrees)
Orbital Period (minutes)
Azimuth
Elevation
Range (km)
Doppler Factor
iOS Compass Heading
iOS Angle

Next 30 passes for location: Hong Kong

Rise time Rise Azimuth (degrees) Set time Set Azimuth (degrees) Duration Max altitude (degrees)

No matching passes for this satellites